Regional Weather Roundup
Issued by NWS

Home | Current Version | Previous Version | Text Only | Print | Product List | Glossary Off
Versions: 1 2 3 4 5 6 7 8 9 10 11 12 13 14 15 16 17 18 19 20 21 22 23 24 25 26 27 28 29 30 31 32 33 34 35 36 37 38 39 40 41 42 43 44 45 46 47 48 49 50

410
ASUS44 KMEG 210800
RWRTN
TENNESSEE HOURLY STATE WEATHER ROUNDUP
NATIONAL WEATHER SERVICE MEMPHIS TN
300 AM CDT THU SEP 21 2017

TNZ002-004-019-021-049-052-054-088>092-210900-
WEST TENNESSEE

CITY           SKY/WX    TMP DP  RH WIND       PRES   REMARKS
MEMPHIS INTL   CLEAR     76  71  85 SW6       30.00S
NWS MEMPHIS      N/A     74 N/A N/A MISG        N/A
JACKSON        CLEAR     71  70  96 CALM      30.01S FOG
DYERSBURG      CLEAR     72  71  97 CALM      30.01S
$$

TNZ008-025-027-028-033-062-065-066-210900-
NORTH MIDDLE TENNESSEE

CITY           SKY/WX    TMP DP  RH WIND       PRES   REMARKS
NASHVILLE      CLEAR     72  68  87 E5        30.04S
CLARKSVILLE    CLEAR     69  67  93 CALM      30.02F FOG
SMYRNA           N/A    N/A N/A N/A MISG        N/A
CROSSVILLE     CLEAR     62  61  96 CALM      30.11S FOG
$$

TNZ061-075-076-078-094-096-097-210900-
SOUTH MIDDLE TENNESSEE

CITY           SKY/WX    TMP DP  RH WIND       PRES   REMARKS
MCMINNVILLE    CLOUDY    64  64 100 CALM      30.06S VSB 1/4
$$

TNZ017-018-042-046-047-210900-
NORTHEAST TENNESSEE

CITY           SKY/WX    TMP DP  RH WIND       PRES   REMARKS
TRI CITIES     PTCLDY    60  60 100 CALM      30.10F FOG
$$

TNZ012-013-036-069-073-074-210900-
CENTRAL EAST TENNESSEE

CITY           SKY/WX    TMP DP  RH WIND       PRES   REMARKS
KNOXVILLE      CLEAR     68  65  90 CALM      30.06R
OAK RIDGE      CLEAR     65  63  93 CALM      30.08S
GATLINBURG     CLEAR     63  61  94 CALM      30.06F
$$

TNZ083-085-099-210900-
SOUTHEAST TENNESSEE

CITY           SKY/WX    TMP DP  RH WIND       PRES   REMARKS
CHATTANOOGA    CLEAR     71  68  90 CALM      30.04S
$$

SKY/WX REPORTED AS FAIR MEANS FEW OR NO CLOUDS BELOW
12 THOUSAND FEET.





USA.gov is the U.S. government's official web portal to all federal, state and local government web resources and services.